DW7346 Weather Reports


Display with metric or nautical units.
time (UTC)temp
F
wind
direction
speed
MPH
gust
MPH
rain 1hr
in
rain 24hr
in
rain mn
in
humidity
%
barometer
mb
20220518141517 78 152 1.0 10.0 0.00 0.00 0.00 74 1008.6
20220518140027 77 200 1.0 8.0 0.00 0.00 0.00 77 1008.5
20220518134514 77 178 1.0 6.0 0.00 0.00 0.00 78 1008.4
20220518133026 76 129 1.0 9.0 0.00 0.00 0.00 79 1008.2
20220518131523 75 200 1.0 8.0 0.00 0.00 0.00 81 1008.1
20220518130009 74 138 0.0 6.0 0.00 0.00 0.00 83 1008.1
20220518124512 73 176 1.0 7.0 0.00 0.00 0.00 83 1007.9
20220518123019 73 153 0.0 4.0 0.00 0.00 0.00 84 1007.8
20220518121506 73 215 0.0 7.0 0.00 0.00 0.00 83 1007.5
20220518120006 73 165 0.0 6.0 0.00 0.00 0.00 82 1007.5
20220518114504 73 121 1.0 6.0 0.00 0.00 0.00 81 1007.2
20220518113002 73 105 1.0 8.0 0.00 0.00 0.00 81 1006.9
20220518111505 74 179 1.0 8.0 0.00 0.00 0.00 81 1007.0
20220518110115 74 169 0.0 4.0 0.00 0.00 0.00 81 1006.9
20220518104559 74 162 1.0 5.0 0.00 0.00 0.00 81 1007.1
20220518103100 74 234 0.0 4.0 0.00 0.00 0.00 81 1007.0
20220518101557 74 188 0.0 4.0 0.00 0.00 0.00 80 1007.0
20220518100055 75 195 0.0 1.0 0.00 0.00 0.00 79 1006.9
20220518094558 75 172 0.0 2.0 0.00 0.00 0.00 77 1006.8
20220518093050 76 172 1.0 6.0 0.00 0.00 0.00 76 1007.0
20220518091548 76 179 0.0 3.0 0.00 0.00 0.00 75 1007.0
20220518090044 77 176 1.0 6.0 0.00 0.00 0.00 73 1007.1
20220518084543 78 172 1.0 8.0 0.00 0.00 0.00 73 1007.1
20220518083041 78 165 0.0 10.0 0.00 0.00 0.00 71 1007.6
20220518081538 78 206 2.0 10.0 0.00 0.00 0.00 71 1007.3
20220518080036 79 233 5.0 13.0 0.00 0.00 0.00 70 1007.1
20220518074534 79 214 3.0 13.0 0.00 0.00 0.00 69 1006.8
20220518073032 79 212 6.0 14.0 0.00 0.00 0.00 69 1006.8
20220518071537 79 221 3.0 16.0 0.00 0.00 0.00 68 1006.5
20220518070028 79 177 3.0 12.0 0.00 0.00 0.00 69 1006.6
20220518064531 80 243 3.0 10.0 0.00 0.00 0.00 68 1006.9
20220518063027 80 182 3.0 15.0 0.00 0.00 0.00 68 1007.1
20220518061541 81 192 3.0 10.0 0.00 0.00 0.00 67 1007.2
20220518060019 81 222 3.0 12.0 0.00 0.00 0.00 66 1007.3
20220518054522 81 250 2.0 14.0 0.00 0.00 0.00 66 1007.6
20220518053016 81 150 3.0 9.0 0.00 0.00 0.00 67 1007.7
20220518051534 81 188 1.0 8.0 0.00 0.00 0.00 68 1007.8
20220518050013 81 141 1.0 6.0 0.00 0.00 0.00 68 1007.8
20220518044522 81 210 2.0 10.0 0.00 0.00 0.00 68 1007.9
20220518043015 81 175 1.0 8.0 0.00 0.00 0.00 68 1007.8
20220518041512 81 139 1.0 10.0 0.00 0.00 0.00 69 1007.9
20220518040010 82 150 2.0 7.0 0.00 0.00 0.00 68 1007.7
20220518034510 82 184 1.0 9.0 0.00 0.00 0.00 68 1007.5
20220518033009 82 196 1.0 9.0 0.00 0.00 0.00 69 1007.4
20220518031525 82 68 2.0 9.0 0.00 0.00 0.00 69 1007.3
20220518030008 82 158 1.0 6.0 0.00 0.00 0.00 68 1007.1
20220518024511 83 90 1.0 6.0 0.00 0.00 0.00 67 1006.8
20220518023012 83 208 0.0 6.0 0.00 0.00 0.00 66 1006.6
20220518021507 84 178 1.0 9.0 0.00 0.00 0.00 63 1006.2
20220518020007 85 101 2.0 8.0 0.00 0.00 0.00 59 1006.2
20220518014514 85 252 0.0 8.0 0.00 0.00 0.00 58 1005.9
20220518013005 86 204 1.0 12.0 0.00 0.00 0.00 57 1006.1
20220518011514 87 186 2.0 10.0 0.00 0.00 0.00 55 1005.9
20220518010004 88 179 1.0 10.0 0.00 0.00 0.00 52 1005.9
20220518004503 88 41 2.0 8.0 0.00 0.00 0.00 51 1006.0
20220518003002 89 178 2.0 8.0 0.00 0.00 0.00 48 1006.1
20220518001632 90 152 3.0 8.0 0.00 0.00 0.00 47 1006.2
20220518000100 91 134 3.0 11.0 0.00 0.00 0.00 44 1006.5
20220517234602 91 166 2.0 8.0 0.00 0.00 0.00 42 1006.7
20220517233100 93 153 2.0 14.0 0.00 0.00 0.00 39 1006.9
20220517231557 92 133 1.0 4.0 0.00 0.00 0.00 43 1006.7
20220517230056 91 235 1.0 4.0 0.00 0.00 0.00 43 1006.6
20220517224555 91 115 1.0 6.0 0.00 0.00 0.00 42 1006.7
20220517223119 91 182 3.0 7.0 0.00 0.00 0.00 40 1006.8
20220517221551 92 90 3.0 10.0 0.00 0.00 0.00 38 1007.3
20220517220049 93 200 2.0 10.0 0.00 0.00 0.00 37 1007.3
20220517214549 95 131 1.0 11.0 0.00 0.00 0.00 38 1007.3
20220517213047 95 146 1.0 10.0 0.00 0.00 0.00 39 1007.6
20220517211546 95 9 2.0 9.0 0.00 0.00 0.00 39 1008.0
20220517210040 95 164 2.0 10.0 0.00 0.00 0.00 40 1008.3
20220517203135 95 89 1.0 10.0 0.00 0.00 0.00 39 1008.7
20220517201537 95 133 2.0 6.0 0.00 0.00 0.00 37 1009.0
20220517200044 95 178 1.0 8.0 0.00 0.00 0.00 38 1009.3
20220517194538 94 95 1.0 12.0 0.00 0.00 0.00 37 1009.3
20220517193033 93 181 3.0 10.0 0.00 0.00 0.00 35 1009.7
20220517191526 93 140 2.0 10.0 0.00 0.00 0.00 39 1009.9
20220517190027 94 288 3.0 10.0 0.00 0.00 0.00 40 1009.9
20220517184519 92 168 2.0 9.0 0.00 0.00 0.00 42 1010.0
20220517183017 92 188 3.0 12.0 0.00 0.00 0.00 42 1010.2
20220517181513 91 104 2.0 7.0 0.00 0.00 0.00 51 1010.2
20220517180013 89 166 3.0 13.0 0.00 0.00 0.00 53 1010.5
20220517174505 88 217 3.0 8.0 0.00 0.00 0.00 53 1010.6
20220517173011 87 96 3.0 10.0 0.00 0.00 0.00 54 1010.7
20220517171502 87 122 1.0 5.0 0.00 0.00 0.00 56 1010.8
20220517170102 87 108 1.0 9.0 0.00 0.00 0.00 57 1010.9